Terug naar catalogus

SATURN

ActiefWetenschapSSO
NORAD 57174·PAYLOAD·🇷🇺 Russia
Deze satellietnaam is nog niet bevestigd door officiële bronnen.

Gelanceerd Jun 27, 2023 vanaf Vostochny Cosmodrome

Loading…

Volgende Passages (komende 24 uur)

TLE

VersSource: Space-Track

Epoch: Sep 14, 2026, 14:22 UTC

1 57174U 23091J   26257.59918380  .00002432  00000-0  13572-3 0  9996
2 57174  97.4960 309.4089 0012701 191.9729 168.1203 15.14437949177163

Volg SATURN in realtime met AllMySat

Download on the App Store